This demonstration page uses our WeatherBlox Daily Observations layout. Learn more.

Left ArrowRight Arrow

34.74481, -87.66753

Hourly Observations for January 9, 2020

Temp ( °F °C ) Dew Point ( °F °C ) Humidity (%) Winds ( mph kmh ) Pressure ( in mb ) Visibility ( mi km ) Precip ( " mm )
12:53 am 00:53 Clear 41 5 28 -2.2 60 60 ESE 5 7 30.35 1028 10 16 0.00 0.00
1:53 am 01:53 Clear 43 6.1 27 -2.8 53 53 ESE 5 7 30.35 1028 10 16 0.00 0.00
2:53 am 02:53 Clear 39 3.9 27 -2.8 62 62 ESE 7 11 30.36 1028 10 16 0.00 0.00
3:53 am 03:53 Clear 40 4.4 27 -2.8 60 60 ESE 5 7 30.36 1028 10 16 0.00 0.00
4:53 am 04:53 Clear 37 2.8 28 -2.2 70 70 SE 6 9 30.37 1028 10 16 0.00 0.00
5:53 am 05:53 Clear 37 2.8 27 -2.8 67 67 ESE 7 11 30.38 1029 10 16 0.00 0.00
6:53 am 06:53 Clear 39 3.9 28 -2.2 65 65 ESE 7 11 30.40 1030 10 16 0.00 0.00
7:53 am 07:53 Sunny 42 5.6 29 -1.7 60 60 ESE 7 11 30.41 1030 10 16 0.00 0.00
8:53 am 08:53 Sunny 48 8.9 30 -1.1 50 50 ESE 8 13 30.43 1031 10 16 0.00 0.00
9:53 am 09:53 Sunny 50 10 32 0 50 50 SE 8 13 30.43 1031 10 16 0.00 0.00
10:53 am 10:53 Sunny 58 14.4 28 -2.2 32 32 S 21 33 30.40 1029 10 16 0.00 0.00
11:53 am 11:53 Sunny 61 16.1 28 -2.2 29 29 SSE 14 22 30.36 1028 10 16 0.00 0.00
12:53 pm 12:53 Sunny 61 16.1 25 -3.9 25 25 S 23 37 30.34 1027 10 16 0.00 0.00
1:53 pm 13:53 Sunny 60 15.6 28 -2.2 30 30 S 14 22 30.32 1027 10 16 0.00 0.00
2:53 pm 14:53 Sunny 61 16.1 33 0.6 35 35 S 9 15 30.31 1026 10 16 0.00 0.00
3:53 pm 15:53 Sunny 60 15.6 36 2.2 41 41 SE 12 19 30.30 1026 10 16 0.00 0.00
4:53 pm 16:53 Sunny 58 14.4 36 2.2 44 44 SE 10 17 30.31 1026 10 16 0.00 0.00
5:53 pm 17:53 Clear 57 13.9 37 2.8 47 47 SSE 9 15 30.31 1027 10 16 0.00 0.00
6:53 pm 18:53 Mostly Cloudy 58 14.4 39 3.9 50 50 SSE 12 19 30.31 1026 10 16 0.00 0.00
7:53 pm 19:53 Clear 57 13.9 40 4.4 53 53 SE 10 17 30.32 1027 10 16 0.00 0.00
8:53 pm 20:53 Clear 58 14.4 40 4.4 51 51 SSE 14 22 30.30 1026 10 16 0.00 0.00
9:53 pm 21:53 Clear 59 15 42 5.6 54 54 SSE 18 30 30.29 1026 10 16 0.00 0.00
10:53 pm 22:53 Clear 60 15.6 44 6.7 56 56 SSE 20 31 30.26 1025 10 16 0.00 0.00
11:53 pm 23:53 Mostly Cloudy 61 16.1 45 7.2 56 56 SSE 16 26 30.27 1025 10 16 0.00 0.00

Powered by AerisWeather